N683MB KPVD-KSLK

Flight info

Callsign N683MB
Flight time 0h 41m
Altitude 36000
Route PVD PUT
Aircraft C750/M-SBDE3FGHRWXY/S

Departure

Time 2026-04-22 04:57
Airport Rhode Island T. F. Green International Airport (KPVD)

Arrival

Time 2026-04-22 05:38
Airport Adirondack Regional Airport (KSLK)
Time Latitude Longitude Altitude Speed Heading
2026-04-22 04:32 41.73201 -71.42939 56 ft 0 kts 356°
2026-04-22 04:52 41.73202 -71.42936 56 ft 0 kts 36°
2026-04-22 04:52 41.73200 -71.42932 56 ft 0 kts 102°
2026-04-22 04:52 41.73194 -71.42929 56 ft 0 kts 148°
2026-04-22 04:53 41.73192 -71.42928 56 ft 2 kts 155°
2026-04-22 04:53 41.73170 -71.42963 54 ft 9 kts 246°
2026-04-22 04:53 41.73166 -71.43056 57 ft 7 kts 268°
2026-04-22 04:54 41.73166 -71.43063 57 ft 0 kts 267°
2026-04-22 04:55 41.73165 -71.43076 57 ft 5 kts 267°
2026-04-22 04:55 41.73154 -71.43149 57 ft 10 kts 241°
2026-04-22 04:55 41.73102 -71.43151 58 ft 8 kts 145°
2026-04-22 04:55 41.73084 -71.43132 58 ft 0 kts 142°
2026-04-22 04:56 41.72883 -71.42919 57 ft 91 kts 142°
2026-04-22 04:56 41.72167 -71.42156 133 ft 153 kts 143°
2026-04-22 04:57 41.71329 -71.41253 952 ft 155 kts 144°
2026-04-22 04:57 41.70504 -71.40371 2001 ft 149 kts 147°
2026-04-22 04:57 41.69668 -71.39551 2838 ft 152 kts 158°
2026-04-22 04:57 41.68526 -71.39379 3094 ft 188 kts 193°
2026-04-22 04:58 41.67370 -71.40342 3712 ft 207 kts 230°
2026-04-22 04:58 41.66801 -71.42136 4558 ft 218 kts 262°
2026-04-22 04:58 41.67023 -71.44181 5419 ft 229 kts 292°
2026-04-22 04:58 41.67945 -71.45858 6515 ft 229 kts 318°
2026-04-22 04:59 41.69347 -71.46906 7521 ft 236 kts 339°
2026-04-22 04:59 41.70906 -71.47626 8812 ft 229 kts 339°
2026-04-22 04:59 41.72392 -71.48320 10125 ft 229 kts 339°
2026-04-22 04:59 41.73948 -71.49010 10777 ft 244 kts 340°
2026-04-22 05:00 41.75574 -71.49712 11651 ft 252 kts 340°
2026-04-22 05:00 41.77291 -71.50574 11927 ft 277 kts 328°
2026-04-22 05:00 41.78735 -71.52435 12170 ft 301 kts 309°
2026-04-22 05:00 41.79853 -71.54929 12520 ft 320 kts 299°
2026-04-22 05:01 41.80831 -71.57576 13569 ft 314 kts 299°
2026-04-22 05:01 41.81922 -71.60114 14443 ft 315 kts 304°
2026-04-22 05:01 41.83249 -71.62450 15200 ft 316 kts 310°
2026-04-22 05:01 41.84654 -71.64734 15934 ft 318 kts 309°
2026-04-22 05:02 41.85982 -71.67116 16716 ft 320 kts 306°
2026-04-22 05:02 41.87283 -71.69552 17523 ft 322 kts 306°
2026-04-22 05:02 41.88610 -71.71945 18347 ft 325 kts 307°
2026-04-22 05:02 41.89982 -71.74371 19098 ft 327 kts 307°
2026-04-22 05:03 41.91352 -71.76833 19812 ft 331 kts 306°
2026-04-22 05:03 41.92729 -71.79329 20526 ft 335 kts 306°
2026-04-22 05:03 41.94128 -71.81854 21250 ft 338 kts 307°
2026-04-22 05:03 41.95652 -71.84278 21918 ft 343 kts 313°
2026-04-22 05:04 41.97427 -71.86458 22635 ft 347 kts 319°
2026-04-22 05:04 41.99330 -71.88492 23343 ft 351 kts 319°
2026-04-22 05:04 42.01237 -71.90572 24014 ft 355 kts 319°
2026-04-22 05:04 42.03161 -71.92680 24561 ft 359 kts 319°
2026-04-22 05:05 42.05113 -71.94798 25142 ft 362 kts 319°
2026-04-22 05:05 42.07082 -71.96931 25726 ft 365 kts 319°
2026-04-22 05:05 42.09068 -71.99095 26295 ft 368 kts 319°
2026-04-22 05:05 42.11070 -72.01281 26878 ft 371 kts 319°
2026-04-22 05:06 42.13086 -72.03479 27463 ft 374 kts 319°
2026-04-22 05:06 42.15120 -72.05697 28051 ft 378 kts 319°
2026-04-22 05:06 42.17170 -72.07938 28655 ft 381 kts 318°
2026-04-22 05:06 42.19211 -72.10172 29241 ft 385 kts 318°
2026-04-22 05:07 42.21299 -72.12456 29835 ft 388 kts 318°
2026-04-22 05:07 42.23408 -72.14765 30415 ft 392 kts 318°
2026-04-22 05:07 42.25536 -72.17099 30897 ft 396 kts 318°
2026-04-22 05:07 42.27685 -72.19456 31371 ft 400 kts 318°
2026-04-22 05:08 42.29859 -72.21845 31847 ft 404 kts 318°
2026-04-22 05:08 42.32049 -72.24253 32302 ft 408 kts 318°
2026-04-22 05:08 42.34266 -72.26692 32717 ft 412 kts 319°
2026-04-22 05:08 42.36501 -72.29154 33125 ft 417 kts 319°
2026-04-22 05:09 42.38758 -72.31642 33555 ft 420 kts 319°
2026-04-22 05:09 42.41009 -72.34126 33968 ft 424 kts 319°
2026-04-22 05:09 42.43305 -72.36662 34379 ft 428 kts 319°
2026-04-22 05:09 42.45620 -72.39222 34729 ft 432 kts 319°
2026-04-22 05:10 42.47953 -72.41804 35097 ft 435 kts 318°
2026-04-22 05:10 42.50306 -72.44411 35434 ft 439 kts 318°
2026-04-22 05:10 42.52690 -72.47056 35761 ft 443 kts 318°
2026-04-22 05:10 42.55082 -72.49711 36082 ft 447 kts 318°
2026-04-22 05:11 42.57505 -72.52403 36274 ft 452 kts 318°
2026-04-22 05:11 42.62452 -72.57910 36277 ft 465 kts 318°
2026-04-22 05:12 42.67435 -72.63464 36265 ft 461 kts 318°
2026-04-22 05:12 42.72378 -72.68993 36266 ft 458 kts 318°
2026-04-22 05:13 42.77291 -72.74493 36262 ft 456 kts 318°
2026-04-22 05:13 42.82173 -72.79975 36259 ft 451 kts 318°
2026-04-22 05:13 42.84525 -72.82615 35744 ft 441 kts 318°
2026-04-22 05:14 42.86895 -72.85284 35003 ft 440 kts 318°
2026-04-22 05:14 42.89224 -72.87910 34438 ft 430 kts 318°
2026-04-22 05:14 42.91511 -72.90489 33642 ft 423 kts 318°
2026-04-22 05:14 42.93759 -72.93027 32860 ft 416 kts 318°
2026-04-22 05:15 42.95974 -72.95531 32107 ft 411 kts 318°
2026-04-22 05:15 42.98164 -72.98009 31523 ft 407 kts 318°
2026-04-22 05:15 43.00334 -73.00466 31009 ft 402 kts 318°
2026-04-22 05:15 43.02472 -73.02888 30460 ft 398 kts 318°
2026-04-22 05:16 43.04591 -73.05292 29839 ft 394 kts 318°
2026-04-22 05:16 43.06691 -73.07675 29211 ft 389 kts 318°
2026-04-22 05:16 43.08763 -73.10031 28592 ft 385 kts 318°
2026-04-22 05:16 43.10817 -73.12367 27986 ft 381 kts 318°
2026-04-22 05:17 43.12845 -73.14675 27329 ft 377 kts 318°
2026-04-22 05:17 43.14853 -73.16962 26708 ft 373 kts 318°
2026-04-22 05:17 43.16836 -73.19226 26116 ft 369 kts 318°
2026-04-22 05:17 43.18774 -73.21438 25545 ft 365 kts 318°
2026-04-22 05:18 43.22635 -73.25850 24373 ft 358 kts 317°
2026-04-22 05:18 43.24539 -73.28028 23803 ft 355 kts 317°
2026-04-22 05:18 43.26427 -73.30191 23117 ft 351 kts 317°
2026-04-22 05:19 43.28294 -73.32331 22407 ft 349 kts 317°
2026-04-22 05:19 43.30147 -73.34458 21733 ft 346 kts 317°
2026-04-22 05:19 43.31985 -73.36567 21081 ft 343 kts 317°
2026-04-22 05:19 43.33806 -73.38661 20445 ft 340 kts 317°
2026-04-22 05:20 43.35613 -73.40740 19825 ft 337 kts 317°
2026-04-22 05:20 43.37408 -73.42806 19212 ft 335 kts 317°
2026-04-22 05:20 43.39190 -73.44859 18621 ft 333 kts 317°
2026-04-22 05:20 43.40962 -73.46902 18003 ft 331 kts 317°
2026-04-22 05:21 43.42717 -73.48928 17399 ft 327 kts 317°
2026-04-22 05:21 43.44457 -73.50936 16783 ft 325 kts 317°
2026-04-22 05:21 43.46184 -73.52930 16154 ft 323 kts 317°
2026-04-22 05:21 43.47900 -73.54913 15552 ft 322 kts 317°
2026-04-22 05:22 43.49590 -73.56866 15006 ft 320 kts 317°
2026-04-22 05:22 43.51286 -73.58831 14448 ft 318 kts 317°
2026-04-22 05:22 43.52976 -73.60789 13892 ft 317 kts 317°
2026-04-22 05:22 43.54658 -73.62741 13332 ft 315 kts 317°
2026-04-22 05:23 43.56337 -73.64689 12744 ft 314 kts 317°
2026-04-22 05:23 43.58008 -73.66630 12131 ft 314 kts 317°
2026-04-22 05:23 43.59677 -73.68572 11568 ft 313 kts 317°
2026-04-22 05:23 43.61342 -73.70508 11024 ft 313 kts 318°
2026-04-22 05:24 43.63007 -73.72446 10494 ft 313 kts 318°
2026-04-22 05:24 43.64669 -73.74382 9993 ft 312 kts 318°
2026-04-22 05:24 43.66328 -73.76317 9456 ft 312 kts 318°
2026-04-22 05:24 43.67953 -73.78211 8942 ft 295 kts 318°
2026-04-22 05:25 43.69454 -73.79960 8636 ft 271 kts 318°
2026-04-22 05:25 43.70845 -73.81586 8306 ft 253 kts 317°
2026-04-22 05:25 43.72213 -73.83191 7740 ft 261 kts 317°
2026-04-22 05:25 43.73567 -73.84776 7434 ft 257 kts 317°
2026-04-22 05:26 43.74938 -73.86379 7028 ft 258 kts 317°
2026-04-22 05:26 43.76310 -73.87986 6687 ft 258 kts 317°
2026-04-22 05:26 43.77677 -73.89589 6302 ft 258 kts 317°
2026-04-22 05:26 43.79047 -73.91194 5943 ft 257 kts 317°
2026-04-22 05:27 43.80410 -73.92794 5613 ft 257 kts 316°
2026-04-22 05:27 43.81754 -73.94370 5500 ft 246 kts 316°
2026-04-22 05:27 43.83031 -73.95868 5501 ft 238 kts 316°
2026-04-22 05:27 43.84313 -73.97381 5503 ft 244 kts 316°
2026-04-22 05:28 43.85601 -73.98896 5507 ft 242 kts 316°
2026-04-22 05:28 43.86885 -74.00404 5507 ft 241 kts 316°
2026-04-22 05:28 43.88161 -74.01907 5511 ft 240 kts 316°
2026-04-22 05:28 43.89432 -74.03405 5510 ft 240 kts 316°
2026-04-22 05:29 43.90700 -74.04901 5506 ft 239 kts 316°
2026-04-22 05:29 43.91965 -74.06392 5502 ft 238 kts 316°
2026-04-22 05:29 43.93228 -74.07884 5499 ft 238 kts 316°
2026-04-22 05:29 43.94472 -74.09354 5502 ft 238 kts 316°
2026-04-22 05:30 43.95735 -74.10846 5501 ft 238 kts 316°
2026-04-22 05:30 43.97000 -74.12341 5499 ft 240 kts 316°
2026-04-22 05:30 43.98278 -74.13856 5504 ft 243 kts 316°
2026-04-22 05:30 43.99574 -74.15389 5506 ft 246 kts 316°
2026-04-22 05:31 44.00889 -74.16948 5489 ft 249 kts 316°
2026-04-22 05:31 44.02211 -74.18514 5493 ft 250 kts 316°
2026-04-22 05:31 44.03541 -74.20090 5492 ft 252 kts 316°
2026-04-22 05:31 44.04880 -74.21679 5487 ft 254 kts 316°
2026-04-22 05:32 44.06219 -74.23270 5487 ft 253 kts 316°
2026-04-22 05:32 44.07557 -74.24859 5488 ft 252 kts 316°
2026-04-22 05:32 44.08890 -74.26429 5487 ft 250 kts 316°
2026-04-22 05:32 44.10224 -74.27981 5477 ft 249 kts 316°
2026-04-22 05:33 44.11550 -74.29531 5473 ft 248 kts 316°
2026-04-22 05:33 44.12869 -74.31078 5470 ft 247 kts 316°
2026-04-22 05:33 44.14182 -74.32619 5466 ft 246 kts 316°
2026-04-22 05:33 44.15485 -74.34146 5463 ft 245 kts 316°
2026-04-22 05:34 44.16769 -74.35653 5464 ft 244 kts 316°
2026-04-22 05:34 44.18104 -74.37103 5421 ft 246 kts 325°
2026-04-22 05:34 44.19769 -74.37728 5425 ft 253 kts 353°
2026-04-22 05:34 44.21499 -74.37247 5426 ft 259 kts 21°
2026-04-22 05:35 44.23019 -74.35903 5465 ft 258 kts 32°
2026-04-22 05:35 44.24488 -74.34453 5461 ft 259 kts 32°
2026-04-22 05:35 44.25970 -74.33012 5451 ft 259 kts 32°
2026-04-22 05:35 44.27469 -74.31574 5084 ft 263 kts 32°
2026-04-22 05:36 44.28953 -74.30151 4623 ft 254 kts 33°
2026-04-22 05:36 44.30376 -74.28749 4096 ft 246 kts 32°
2026-04-22 05:36 44.31769 -74.27460 3685 ft 235 kts 34°
2026-04-22 05:36 44.33033 -74.26206 3374 ft 207 kts 38°
2026-04-22 05:37 44.34151 -74.25110 3006 ft 188 kts 35°
2026-04-22 05:37 44.34857 -74.24449 2690 ft 180 kts 38°
2026-04-22 05:37 44.35819 -74.23475 2265 ft 161 kts 38°
2026-04-22 05:37 44.36683 -74.22623 2009 ft 143 kts 34°
2026-04-22 05:38 44.37469 -74.21865 1804 ft 132 kts 34°
2026-04-22 05:38 44.38201 -74.21156 1666 ft 124 kts 34°
2026-04-22 05:38 44.38818 -74.20554 1668 ft 81 kts 34°
2026-04-22 05:38 44.39122 -74.20262 1662 ft 42 kts 34°
2026-04-22 05:39 44.39337 -74.20057 1670 ft 34 kts 35°
2026-04-22 05:39 44.39460 -74.19919 1675 ft 14 kts 52°
2026-04-22 05:39 44.39446 -74.19806 1669 ft 13 kts 132°
2026-04-22 05:39 44.39370 -74.19830 1669 ft 13 kts 216°
2026-04-22 05:40 44.39297 -74.19902 1674 ft 14 kts 216°
2026-04-22 05:40 44.39216 -74.19978 1673 ft 14 kts 212°
2026-04-22 05:40 44.39131 -74.20058 1673 ft 15 kts 222°
2026-04-22 05:40 44.39046 -74.20146 1673 ft 15 kts 214°
2026-04-22 05:41 44.38955 -74.20233 1665 ft 16 kts 214°
2026-04-22 05:41 44.38860 -74.20325 1660 ft 17 kts 214°
2026-04-22 05:41 44.38762 -74.20421 1659 ft 16 kts 214°
2026-04-22 05:41 44.38683 -74.20422 1661 ft 12 kts 144°
2026-04-22 05:42 44.38615 -74.20355 1659 ft 12 kts 145°
2026-04-22 05:42 44.38545 -74.20285 1661 ft 13 kts 146°
2026-04-22 05:42 44.38473 -74.20216 1663 ft 13 kts 144°
2026-04-22 05:42 44.38401 -74.20146 1665 ft 12 kts 144°
2026-04-22 05:43 44.38330 -74.20076 1666 ft 13 kts 145°
2026-04-22 05:43 44.38258 -74.20006 1669 ft 12 kts 144°
2026-04-22 05:43 44.38181 -74.19971 1668 ft 13 kts 219°
2026-04-22 05:43 44.38157 -74.20106 1672 ft 16 kts 259°
2026-04-22 05:44 44.38135 -74.20271 1663 ft 18 kts 259°
2026-04-22 05:44 44.38117 -74.20412 1661 ft 12 kts 258°
2026-04-22 05:44 44.38082 -74.20465 1665 ft 3 kts 183°
2026-04-22 05:44 44.38076 -74.20462 1660 ft 0 kts 160°
2026-04-22 05:45 44.38074 -74.20461 1660 ft 0 kts 159°
2026-04-22 05:45 44.38069 -74.20452 1666 ft 0 kts 122°